Location: Brunsbüttel
(52.3892°N, 10.6138°E)
Time: 16:25:15
(UTC+00:00)

GEOS 3 Rocket - Pass Details

Date: 19 May 2025
Orbit: 782 x 831 km, 115.0° (Epoch: 16 June)

Event Time Altitude Azimuth Distance (km) Brightness Sun altitude
Exits shadow 23:21:51 - 122° (ESE) 2,530 5.9 -17.6°
Reaches altitude 10° 23:22:18 10° 122° (ESE) 2,346 5.7 -17.6°
Maximum altitude 23:27:21 68° 40° (NE) 853 3.9 -17.6°
Drops below altitude 10° 23:32:28 10° 318° (NW) 2,383 6.7 -17.5°
Sets 23:34:47 0° 317° (NW) 3,324 7.4 -17.5°
